MST,Max TemperatureF,Mean TemperatureF,Min TemperatureF,Max Dew PointF,MeanDew PointF,Min DewpointF,Max Humidity, Mean Humidity, Min Humidity, Max Sea Level PressureIn, Mean Sea Level PressureIn, Min Sea Level PressureIn, Max VisibilityMiles, Mean VisibilityMiles, Min VisibilityMiles, Max Wind SpeedMPH, Mean Wind SpeedMPH, Max Gust SpeedMPH,PrecipitationIn, CloudCover, Events, WindDirDegrees
2014-1-1,50,34,18,22,12,-4,91,52,12,30.38,30.25,30.14,10,10,10,18,6,23,0.00,1,,44
2014-1-2,45,29,12,19,12,8,84,54,24,30.50,30.41,30.32,10,10,10,9,3,10,0.00,0,,22
2014-1-3,48,31,13,18,13,10,88,56,23,30.31,30.15,29.96,10,10,10,14,4,20,0.00,0,,175
2014-1-4,42,28,13,20,8,-4,80,51,22,30.15,29.98,29.81,10,10,10,37,9,46,0.00,2,,308
2014-1-5,33,18,2,4,-4,-15,79,47,14,30.41,30.29,30.13,10,10,10,21,6,31,0.00,0,,281
2014-1-6,32,17,2,4,-1,-4,79,52,25,30.60,30.53,30.40,10,10,10,8,3,13,0.00,0,,48
2014-1-7,35,22,9,12,7,4,80,55,29,30.48,30.36,30.24,10,10,10,10,2,12,0.00,1,,33
2014-1-8,41,25,8,15,10,5,83,56,28,30.30,30.22,30.14,10,10,10,14,3,18,0.00,2,,48
2014-1-9,41,26,11,26,17,8,84,61,37,30.22,30.10,29.93,10,10,4,24,5,31,T,4,Snow,285
2014-1-10,41,33,24,19,15,11,69,53,37,30.15,29.99,29.86,10,10,10,37,17,48,0.00,1,,276
2014-1-11,47,33,19,19,17,14,77,54,31,30.34,30.22,30.07,10,10,10,13,4,14,0.00,0,,23
2014-1-12,41,31,21,23,12,3,84,55,25,30.24,30.05,29.94,10,10,10,37,12,45,T,1,,320
2014-1-13,44,29,13,14,10,6,68,48,27,30.47,30.35,30.19,10,10,10,18,7,23,0.00,0,,246
2014-1-14,50,30,9,14,8,3,84,50,15,30.54,30.45,30.36,10,10,10,24,7,30,0.00,0,,43
2014-1-15,46,29,12,14,11,6,76,52,28,30.54,30.44,30.35,10,10,10,12,4,14,0.00,0,,61
2014-1-16,47,29,10,16,11,7,84,54,23,30.45,30.37,30.27,10,10,10,13,3,14,0.00,0,,53
2014-1-17,48,30,11,13,10,7,80,51,21,30.48,30.35,30.25,10,10,10,13,5,16,0.00,0,,58
2014-1-18,50,31,12,15,12,9,80,51,21,30.45,30.35,30.25,10,10,10,12,3,13,0.00,0,,35
2014-1-19,51,31,11,17,13,9,84,53,22,30.51,30.36,30.22,10,10,10,17,5,22,0.00,0,,149
2014-1-20,50,31,11,16,12,8,84,54,23,30.55,30.39,30.25,10,10,10,10,4,14,0.00,0,,37
2014-1-21,50,30,9,11,7,1,80,47,14,30.66,30.50,30.34,10,10,10,10,2,14,0.00,0,,9
2014-1-22,42,26,9,12,9,6,83,54,25,30.36,30.21,30.06,10,10,10,10,2,12,0.00,0,,41
2014-1-23,42,28,13,13,12,7,76,52,28,30.56,30.31,30.01,10,10,10,12,4,18,0.00,2,,93
2014-1-24,42,24,6,15,11,4,92,61,30,30.69,30.59,30.48,10,10,10,13,4,15,0.00,0,,356
2014-1-25,43,27,11,16,12,9,84,57,29,30.54,30.39,30.21,10,10,10,10,4,14,0.00,0,,18
2014-1-26,51,31,11,14,11,7,83,51,19,30.30,30.14,29.99,10,10,10,17,5,23,0.00,0,,77
2014-1-27,51,32,13,15,12,9,80,50,19,30.17,30.01,29.90,10,10,10,31,12,41,0.00,0,,290
2014-1-28,51,34,17,12,-5,-19,47,26,5,30.22,30.05,29.90,10,10,10,26,11,36,0.00,0,,297
2014-1-29,46,28,10,11,3,-3,58,38,18,30.28,30.15,29.97,10,10,10,12,4,16,0.00,1,,73
2014-1-30,45,36,26,36,23,10,92,66,40,29.95,29.82,29.65,10,10,7,21,6,28,0.11,7,Rain,40
2014-1-31,45,37,29,31,29,26,92,73,53,29.75,29.69,29.60,10,7,1,28,11,39,0.02,7,Rain-Snow,239